| time (UTC) | temp F | wind direction | speed knots | gust knots | rain 1hr in | rain 24hr in | rain mn in | humidity % | barometer mb |
| 20260504214515 | 71 | 223 | 9.6 | 16.5 | 0.00 | 0.00 | 0.00 | 43 | 1006.7 |
| 20260504213515 | 71 | 218 | 11.3 | 18.2 | 0.00 | 0.00 | 0.00 | 43 | 1006.7 |
| 20260504212515 | 70 | 221 | 8.7 | 15.6 | 0.00 | 0.00 | 0.00 | 44 | 1006.8 |
| 20260504211515 | 70 | 220 | 7.8 | 18.2 | 0.00 | 0.00 | 0.00 | 45 | 1006.7 |
| 20260504210515 | 70 | 219 | 9.6 | 18.2 | 0.00 | 0.00 | 0.00 | 44 | 1006.8 |
| 20260504205515 | 71 | 222 | 11.3 | 16.5 | 0.00 | 0.00 | 0.00 | 44 | 1007.0 |
| 20260504204515 | 70 | 217 | 9.6 | 15.6 | 0.00 | 0.00 | 0.00 | 44 | 1007.0 |
| 20260504203515 | 70 | 233 | 11.3 | 19.1 | 0.00 | 0.00 | 0.00 | 44 | 1007.1 |
| 20260504202515 | 70 | 223 | 10.4 | 14.8 | 0.00 | 0.00 | 0.00 | 44 | 1007.2 |
| 20260504201515 | 71 | 214 | 8.7 | 12.2 | 0.00 | 0.00 | 0.00 | 46 | 1007.4 |
| 20260504200515 | 70 | 231 | 10.4 | 19.1 | 0.00 | 0.00 | 0.00 | 44 | 1007.5 |
| 20260504195515 | 70 | 227 | 11.3 | 16.5 | 0.00 | 0.00 | 0.00 | 46 | 1007.5 |
| 20260504194515 | 70 | 226 | 12.2 | 18.2 | 0.00 | 0.00 | 0.00 | 45 | 1007.7 |
| 20260504193515 | 69 | 219 | 13.0 | 20.0 | 0.00 | 0.00 | 0.00 | 44 | 1007.7 |
| 20260504192515 | 69 | 224 | 13.0 | 20.0 | 0.00 | 0.00 | 0.00 | 44 | 1007.9 |
| 20260504191535 | 69 | 235 | 11.3 | 19.1 | 0.00 | 0.00 | 0.00 | 43 | 1007.9 |
| 20260504190515 | 70 | 224 | 11.3 | 17.4 | 0.00 | 0.00 | 0.00 | 45 | 1008.0 |
| 20260504185515 | 69 | 233 | 9.6 | 17.4 | 0.00 | 0.00 | 0.00 | 45 | 1008.1 |
| 20260504184515 | 69 | 227 | 9.6 | 20.0 | 0.00 | 0.00 | 0.00 | 46 | 1008.4 |
| 20260504183515 | 69 | 230 | 12.2 | 16.5 | 0.00 | 0.00 | 0.00 | 46 | 1008.5 |
| 20260504182515 | 68 | 227 | 8.7 | 18.2 | 0.00 | 0.00 | 0.00 | 44 | 1008.6 |
| 20260504181515 | 68 | 241 | 14.8 | 23.5 | 0.00 | 0.00 | 0.00 | 44 | 1008.7 |
| 20260504180535 | 68 | 237 | 12.2 | 20.0 | 0.00 | 0.00 | 0.00 | 45 | 1008.8 |
| 20260504175535 | 67 | 234 | 8.7 | 20.0 | 0.00 | 0.00 | 0.00 | 46 | 1008.9 |
| 20260504174515 | 67 | 234 | 11.3 | 18.2 | 0.00 | 0.00 | 0.00 | 47 | 1009.0 |
| 20260504173515 | 66 | 222 | 10.4 | 17.4 | 0.00 | 0.00 | 0.00 | 46 | 1009.2 |
| 20260504172515 | 66 | 224 | 8.7 | 17.4 | 0.00 | 0.00 | 0.00 | 49 | 1009.4 |
| 20260504171515 | 66 | 235 | 11.3 | 18.2 | 0.00 | 0.00 | 0.00 | 47 | 1009.6 |
| 20260504170515 | 66 | 226 | 13.0 | 17.4 | 0.00 | 0.00 | 0.00 | 48 | 1009.8 |
| 20260504150515 | 59 | 237 | 8.7 | 14.8 | 0.00 | 0.00 | 0.00 | 52 | 1011.2 |
| 20260504140515 | 54 | 210 | 4.3 | 8.7 | 0.00 | 0.00 | 0.00 | 59 | 1011.7 |
| 20260504130516 | 51 | 223 | 3.5 | 7.0 | 0.00 | 0.00 | 0.00 | 60 | 1012.0 |
| 20260504110515 | 46 | 0.0 | 0.0 | 0.00 | 0.00 | 0.00 | 70 | 1012.1 | |
| 20260504100517 | 41 | 0.0 | 0.0 | 0.00 | 0.00 | 0.00 | 72 | 1011.9 | |
| 20260504081517 | 42 | 250 | 0.9 | 2.6 | 0.00 | 0.00 | 0.00 | 71 | 1012.2 |
| 20260504080517 | 42 | 0.0 | 0.0 | 0.00 | 0.00 | 0.00 | 70 | 1012.1 | |
| 20260504050517 | 46 | 248 | 1.7 | 3.5 | 0.00 | 0.00 | 0.00 | 62 | 1012.0 |
| 20260504045517 | 47 | 249 | 2.6 | 3.5 | 0.00 | 0.00 | 0.00 | 60 | 1012.0 |
| 20260504044517 | 47 | 228 | 2.6 | 3.5 | 0.00 | 0.00 | 0.00 | 61 | 1012.0 |
| 20260504043517 | 47 | 237 | 2.6 | 4.3 | 0.00 | 0.00 | 0.00 | 62 | 1011.9 |
| 20260504042517 | 45 | 249 | 3.5 | 7.0 | 0.00 | 0.00 | 0.00 | 65 | 1011.9 |
| 20260504041517 | 45 | 278 | 0.9 | 2.6 | 0.00 | 0.00 | 0.00 | 66 | 1011.9 |
| 20260504040517 | 45 | 278 | 0.9 | 1.7 | 0.00 | 0.00 | 0.00 | 65 | 1011.7 |
| 20260504035516 | 45 | 0.0 | 0.9 | 0.00 | 0.00 | 0.00 | 65 | 1011.6 | |
| 20260504034515 | 45 | 278 | 0.0 | 0.9 | 0.00 | 0.00 | 0.00 | 65 | 1011.4 |
| 20260504033516 | 45 | 0.0 | 0.0 | 0.00 | 0.00 | 0.00 | 62 | 1011.3 | |
| 20260504032515 | 47 | 0.0 | 0.0 | 0.00 | 0.00 | 0.00 | 60 | 1011.4 | |
| 20260504031516 | 47 | 0.0 | 0.9 | 0.00 | 0.00 | 0.00 | 59 | 1011.2 | |
| 20260504030515 | 46 | 278 | 0.9 | 0.9 | 0.00 | 0.00 | 0.00 | 61 | 1011.2 |
| 20260504025515 | 47 | 0.0 | 0.0 | 0.00 | 0.00 | 0.00 | 60 | 1011.2 | |
| 20260504024516 | 46 | 278 | 0.9 | 2.6 | 0.00 | 0.00 | 0.00 | 61 | 1011.2 |
| 20260504023516 | 48 | 278 | 0.0 | 0.9 | 0.00 | 0.00 | 0.00 | 58 | 1011.2 |
| 20260504022516 | 49 | 0.0 | 0.9 | 0.00 | 0.00 | 0.00 | 56 | 1011.3 | |
| 20260504021515 | 48 | 0.0 | 0.0 | 0.00 | 0.00 | 0.00 | 57 | 1011.3 | |
| 20260504020515 | 49 | 0.0 | 0.0 | 0.00 | 0.00 | 0.00 | 55 | 1011.2 | |
| 20260504015515 | 50 | 278 | 0.9 | 2.6 | 0.00 | 0.00 | 0.00 | 53 | 1011.2 |
| 20260504014516 | 49 | 278 | 1.7 | 2.6 | 0.00 | 0.00 | 0.00 | 57 | 1011.2 |
| 20260504013535 | 50 | 278 | 0.9 | 2.6 | 0.00 | 0.00 | 0.00 | 54 | 1011.1 |
| 20260504012516 | 51 | 278 | 0.9 | 1.7 | 0.00 | 0.00 | 0.00 | 50 | 1011.2 |
| 20260504011516 | 52 | 278 | 1.7 | 1.7 | 0.00 | 0.00 | 0.00 | 49 | 1011.1 |
| 20260504010515 | 51 | 278 | 0.0 | 1.7 | 0.00 | 0.00 | 0.00 | 50 | 1011.0 |
| 20260504005536 | 52 | 278 | 0.9 | 2.6 | 0.00 | 0.00 | 0.00 | 49 | 1010.9 |
| 20260504004515 | 53 | 272 | 1.7 | 5.2 | 0.00 | 0.00 | 0.00 | 48 | 1010.9 |
| 20260504003515 | 53 | 243 | 4.3 | 7.0 | 0.00 | 0.00 | 0.00 | 46 | 1010.6 |
| 20260504002535 | 54 | 248 | 5.2 | 7.0 | 0.00 | 0.00 | 0.00 | 46 | 1010.4 |
| 20260504001515 | 55 | 244 | 5.2 | 10.4 | 0.00 | 0.00 | 0.00 | 44 | 1010.3 |
| 20260504000535 | 55 | 247 | 6.1 | 11.3 | 0.00 | 0.00 | 0.00 | 42 | 1010.3 |
| 20260503235515 | 56 | 253 | 6.1 | 13.0 | 0.00 | 0.00 | 0.00 | 41 | 1010.2 |
| 20260503234516 | 57 | 249 | 8.7 | 13.9 | 0.00 | 0.00 | 0.00 | 40 | 1010.2 |
| 20260503233536 | 57 | 254 | 8.7 | 19.1 | 0.00 | 0.00 | 0.00 | 40 | 1010.0 |
| 20260503232515 | 58 | 248 | 10.4 | 16.5 | 0.00 | 0.00 | 0.00 | 40 | 1009.9 |
| 20260503231535 | 58 | 249 | 7.0 | 11.3 | 0.00 | 0.00 | 0.00 | 40 | 1009.8 |
| 20260503230515 | 58 | 247 | 6.1 | 9.6 | 0.00 | 0.00 | 0.00 | 39 | 1009.8 |
| 20260503225515 | 57 | 256 | 7.8 | 16.5 | 0.00 | 0.00 | 0.00 | 39 | 1009.9 |
| 20260503224515 | 59 | 255 | 9.6 | 13.9 | 0.00 | 0.00 | 0.00 | 39 | 1009.8 |
| 20260503223515 | 58 | 252 | 9.6 | 15.6 | 0.00 | 0.00 | 0.00 | 39 | 1009.7 |
| 20260503222536 | 59 | 267 | 10.4 | 20.0 | 0.00 | 0.00 | 0.00 | 38 | 1009.7 |
| 20260503221515 | 59 | 249 | 8.7 | 13.9 | 0.00 | 0.00 | 0.00 | 40 | 1009.7 |
| 20260503220516 | 58 | 253 | 13.0 | 21.7 | 0.00 | 0.00 | 0.00 | 38 | 1009.7 |
| 20260503215515 | 58 | 256 | 10.4 | 17.4 | 0.00 | 0.00 | 0.00 | 40 | 1009.8 |